OE-4057 Weather Reports


Display with metric or nautical units.
time (UTC)temp
F
wind
direction
speed
MPH
gust
MPH
rain 1hr
in
rain 24hr
in
rain mn
in
humidity
%
barometer
mb
20260903081111 67 335 2.0 5.0 0.00 0.00 0.00 65 1023.3
20260903074111 65 151 2.0 5.0 0.00 0.00 0.00 69 1023.6
20260903071111 63 167 4.0 7.0 0.00 0.00 0.00 75 1023.9
20260903064110 60 265 2.0 4.0 0.00 0.00 0.00 84 1024.3
20260903061111 59 3 2.0 3.0 0.00 0.00 0.00 86 1024.5
20260903054110 59 344 1.0 3.0 0.00 0.00 0.00 85 1023.4
20260903051111 59 66 2.0 4.0 0.00 0.00 0.00 85 1023.4
20260903044110 59 121 2.0 5.0 0.00 0.00 0.00 86 1023.4
20260903041110 59 52 2.0 5.0 0.00 0.00 0.00 85 1023.4
20260903031111 59 156 1.0 3.0 0.00 0.00 0.00 85 1023.4
20260903021110 60 49 1.0 3.0 0.00 0.00 0.00 84 1023.3
20260903014110 60 299 1.0 3.0 0.00 0.00 0.00 82 1023.2
20260903011111 60 61 2.0 4.0 0.00 0.00 0.00 81 1023.2
20260903004111 61 238 2.0 6.0 0.00 0.00 0.00 80 1023.1
20260903001510 61 149 1.0 5.0 0.00 0.00 0.00 80 1023.1
20260902234111 61 41 2.0 4.0 0.00 0.00 0.00 79 1023.1
20260902224111 62 43 1.0 4.0 0.00 0.00 0.00 76 1021.8
20260902221111 63 10 1.0 4.0 0.00 0.00 0.00 74 1021.7
20260902214111 64 185 2.0 4.0 0.00 0.00 0.00 72 1021.6
20260902211111 65 174 6.0 14.0 0.00 0.00 0.00 69 1021.4
20260902204112 65 178 4.0 10.0 0.00 0.00 0.00 69 1021.4
20260902201111 66 162 4.0 10.0 0.00 0.00 0.00 69 1021.3
20260902194111 67 174 6.0 14.0 0.00 0.00 0.00 68 1021.2
20260902191111 68 174 2.0 10.0 0.00 0.00 0.00 67 1021.1
20260902184111 69 153 2.0 4.0 0.00 0.00 0.00 66 1019.9
20260902181111 70 169 2.0 5.0 0.00 0.00 0.00 61 1018.6
20260902174111 72 331 2.0 7.0 0.00 0.00 0.00 56 1018.3
20260902171111 73 12 6.0 12.0 0.00 0.00 0.00 53 1018.2
20260902164111 76 4 8.0 13.0 0.00 0.00 0.00 48 1016.8
20260902161111 77 354 7.0 13.0 0.00 0.00 0.00 44 1016.6
20260902154111 78 344 8.0 13.0 0.00 0.00 0.00 43 1016.4
20260902151111 78 346 9.0 15.0 0.00 0.00 0.00 44 1017.5
20260902144111 78 355 9.0 15.0 0.00 0.00 0.00 45 1017.6
20260902141111 77 4 9.0 16.0 0.00 0.00 0.00 47 1017.7
20260902134110 76 10 9.0 15.0 0.00 0.00 0.00 47 1017.7
20260902131111 78 17 6.0 14.0 0.00 0.00 0.00 43 1017.6
20260902124110 77 11 5.0 9.0 0.00 0.00 0.00 42 1017.7
20260902121111 77 15 4.0 7.0 0.00 0.00 0.00 45 1017.7
20260902114111 77 28 2.0 5.0 0.00 0.00 0.00 43 1018.7
20260902111111 74 357 2.0 6.0 0.00 0.00 0.00 47 1019.1
20260902104111 72 1 2.0 6.0 0.00 0.00 0.00 51 1020.5
20260902101111 71 43 2.0 5.0 0.00 0.00 0.00 56 1020.6
20260902094111 69 5 2.0 5.0 0.00 0.00 0.00 60 1020.9
20260902091110 67 351 2.0 5.0 0.00 0.00 0.00 64 1022.2
20260902084110 65 154 2.0 4.0 0.00 0.00 0.00 68 1022.5